Tracking 30696 objects as of 15-Jun-2025
HD Live streaming from Space Station
objects crossing your sky now

STARLINK-34091

Track STARLINK-34091 now!
10-day predictions
STARLINK-34091 is classified as:


NORAD ID: 63808
Int'l Code: 2025-092E
Perigee: 450.2 km
Apogee: 452.1 km
Inclination: 43.0 °
Period: 93.5 minutes
Semi major axis: 6822 km
RCS: Unknown
Launch date: May 4, 2025
Source: United States (US)
Launch site: AIR FORCE EASTERN TEST RANGE (AFETR)
Your satellite tracking list
Your tracking list is empty




NASA's NSSDC Master Catalog

Two Line Element Set (TLE):
1 63808U 25092E   25165.71142665  .00073088  00000-0  17391-2 0  9993
2 63808  42.9953 246.5626 0001376 269.6607  90.4092 15.40718961  7679
Source of the keplerian elements: AFSPC